WZZ4937 EDDH-EPGD

Flight info

Callsign WZZ4937
Flight time 0h 53m
Altitude 33000
Route RAMAR6G RAMAR L23 GEVNI DCT BINKA DCT LUXAL L730 KOSEX
Aircraft A321/M-SDE3FGHIRWY/LB1

Departure

Time 2026-04-25 10:49
Airport Hamburg Helmut Schmidt Airport (EDDH)

Arrival

Time 2026-04-25 11:42
Airport Gdańsk Lech Wałęsa Airport (EPGD)
Time Latitude Longitude Altitude Speed Heading
2026-04-25 10:18 53.62740 10.00311 54 ft 0 kts 63°
2026-04-25 10:41 53.62736 10.00294 54 ft 4 kts 61°
2026-04-25 10:41 53.62721 10.00256 54 ft 4 kts 50°
2026-04-25 10:41 53.62702 10.00225 54 ft 4 kts 30°
2026-04-25 10:42 53.62680 10.00213 54 ft 3 kts 340°
2026-04-25 10:42 53.62675 10.00216 54 ft 0 kts 333°
2026-04-25 10:44 53.62678 10.00213 54 ft 2 kts 333°
2026-04-25 10:45 53.62698 10.00196 54 ft 5 kts 333°
2026-04-25 10:45 53.62735 10.00165 54 ft 7 kts 333°
2026-04-25 10:45 53.62788 10.00118 54 ft 10 kts 333°
2026-04-25 10:45 53.62857 10.00060 54 ft 12 kts 336°
2026-04-25 10:46 53.62943 10.00002 54 ft 14 kts 333°
2026-04-25 10:46 53.63040 9.99919 54 ft 17 kts 333°
2026-04-25 10:46 53.63148 9.99824 54 ft 18 kts 332°
2026-04-25 10:46 53.63254 9.99752 54 ft 14 kts 11°
2026-04-25 10:47 53.63330 9.99864 54 ft 16 kts 50°
2026-04-25 10:47 53.63410 10.00024 54 ft 19 kts 50°
2026-04-25 10:47 53.63497 10.00151 54 ft 15 kts 358°
2026-04-25 10:47 53.63588 10.00048 54 ft 17 kts 320°
2026-04-25 10:48 53.63607 9.99976 54 ft 3 kts 224°
2026-04-25 10:48 53.63518 9.99801 54 ft 49 kts 231°
2026-04-25 10:48 53.63153 9.99060 54 ft 112 kts 231°
2026-04-25 10:48 53.62538 9.97826 89 ft 156 kts 235°
2026-04-25 10:49 53.61876 9.96498 717 ft 144 kts 233°
2026-04-25 10:49 53.61446 9.95643 1061 ft 145 kts 235°
2026-04-25 10:49 53.60547 9.93777 1450 ft 163 kts 236°
2026-04-25 10:49 53.59803 9.92232 1772 ft 177 kts 236°
2026-04-25 10:50 53.58993 9.90570 2120 ft 191 kts 235°
2026-04-25 10:50 53.58135 9.88812 2520 ft 201 kts 236°
2026-04-25 10:50 53.57241 9.86963 2994 ft 208 kts 238°
2026-04-25 10:50 53.56621 9.84816 3560 ft 200 kts 264°
2026-04-25 10:51 53.56715 9.82533 4149 ft 196 kts 287°
2026-04-25 10:51 53.57243 9.80419 4704 ft 198 kts 304°
2026-04-25 10:51 53.58261 9.78868 5251 ft 202 kts 331°
2026-04-25 10:51 53.59649 9.78355 5811 ft 211 kts 356°
2026-04-25 10:52 53.61096 9.79023 6365 ft 225 kts 23°
2026-04-25 10:52 53.62248 9.80907 6887 ft 242 kts 54°
2026-04-25 10:52 53.62740 9.83693 7377 ft 256 kts 78°
2026-04-25 10:52 53.62870 9.86748 7776 ft 268 kts 82°
2026-04-25 10:53 53.62959 9.88872 7934 ft 280 kts 79°
2026-04-25 10:53 53.63213 9.92223 8148 ft 297 kts 76°
2026-04-25 10:53 53.63550 9.95774 8365 ft 316 kts 76°
2026-04-25 10:53 53.63890 9.99543 8585 ft 335 kts 77°
2026-04-25 10:54 53.64215 10.03532 8805 ft 352 kts 78°
2026-04-25 10:54 53.64535 10.07709 9061 ft 366 kts 79°
2026-04-25 10:54 53.64865 10.12042 9368 ft 378 kts 79°
2026-04-25 10:54 53.65210 10.16462 9879 ft 382 kts 78°
2026-04-25 10:55 53.65561 10.20920 10433 ft 385 kts 78°
2026-04-25 10:55 53.65920 10.25435 10812 ft 394 kts 78°
2026-04-25 10:55 53.66286 10.30053 11256 ft 399 kts 78°
2026-04-25 10:55 53.66649 10.34700 11777 ft 402 kts 79°
2026-04-25 10:56 53.67012 10.39394 12259 ft 405 kts 79°
2026-04-25 10:56 53.67372 10.44125 12751 ft 408 kts 79°
2026-04-25 10:56 53.67735 10.48897 13222 ft 412 kts 79°
2026-04-25 10:56 53.68099 10.53701 13700 ft 414 kts 79°
2026-04-25 10:57 53.68465 10.58537 14171 ft 417 kts 79°
2026-04-25 10:57 53.68835 10.63409 14625 ft 420 kts 79°
2026-04-25 10:57 53.69205 10.68319 15071 ft 423 kts 79°
2026-04-25 10:57 53.69573 10.73262 15533 ft 426 kts 79°
2026-04-25 10:58 53.69939 10.78239 15998 ft 429 kts 79°
2026-04-25 10:58 53.70307 10.83256 16443 ft 432 kts 79°
2026-04-25 10:58 53.70671 10.88230 16883 ft 434 kts 79°
2026-04-25 10:58 53.71036 10.93374 17330 ft 438 kts 81°
2026-04-25 10:59 53.71256 10.98526 17749 ft 442 kts 83°
2026-04-25 10:59 53.71420 11.03723 18168 ft 445 kts 84°
2026-04-25 10:59 53.71559 11.08944 18571 ft 447 kts 84°
2026-04-25 10:59 53.71695 11.14204 18996 ft 449 kts 84°
2026-04-25 11:00 53.71839 11.19417 19397 ft 451 kts 84°
2026-04-25 11:00 53.71996 11.24722 19791 ft 453 kts 84°
2026-04-25 11:00 53.72157 11.30122 20192 ft 455 kts 84°
2026-04-25 11:00 53.72312 11.35474 20574 ft 457 kts 84°
2026-04-25 11:01 53.72458 11.40784 20922 ft 460 kts 84°
2026-04-25 11:01 53.72601 11.46180 21253 ft 462 kts 84°
2026-04-25 11:01 53.72741 11.51605 21589 ft 463 kts 84°
2026-04-25 11:01 53.72873 11.57051 21919 ft 465 kts 84°
2026-04-25 11:02 53.73001 11.62514 22241 ft 466 kts 85°
2026-04-25 11:02 53.73129 11.67996 22558 ft 468 kts 84°
2026-04-25 11:02 53.73256 11.73492 22855 ft 469 kts 84°
2026-04-25 11:02 53.73384 11.79025 23146 ft 471 kts 84°
2026-04-25 11:03 53.73508 11.84571 23439 ft 473 kts 85°
2026-04-25 11:03 53.73632 11.90130 23738 ft 474 kts 84°
2026-04-25 11:03 53.73761 11.95689 24027 ft 475 kts 84°
2026-04-25 11:03 53.73893 12.01277 24301 ft 476 kts 84°
2026-04-25 11:04 53.74021 12.06871 24543 ft 478 kts 84°
2026-04-25 11:04 53.74145 12.12497 24783 ft 480 kts 85°
2026-04-25 11:04 53.74263 12.18151 25023 ft 482 kts 85°
2026-04-25 11:04 53.74345 12.21901 25159 ft 484 kts 85°
2026-04-25 11:05 53.74519 12.29510 25477 ft 485 kts 85°
2026-04-25 11:05 53.74647 12.35221 25718 ft 487 kts 85°
2026-04-25 11:05 53.74770 12.40947 25939 ft 489 kts 85°
2026-04-25 11:05 53.74887 12.46697 26154 ft 491 kts 85°
2026-04-25 11:06 53.74994 12.52465 26373 ft 492 kts 85°
2026-04-25 11:06 53.75079 12.58259 26583 ft 494 kts 86°
2026-04-25 11:06 53.75145 12.64065 26799 ft 495 kts 86°
2026-04-25 11:06 53.75207 12.69893 26998 ft 497 kts 86°
2026-04-25 11:07 53.75279 12.75732 27246 ft 498 kts 86°
2026-04-25 11:07 53.75361 12.81581 27552 ft 497 kts 86°
2026-04-25 11:07 53.75450 12.87332 27825 ft 496 kts 85°
2026-04-25 11:07 53.75543 12.93164 28112 ft 496 kts 85°
2026-04-25 11:08 53.75631 12.98990 28378 ft 495 kts 86°
2026-04-25 11:08 53.75710 13.04809 28648 ft 495 kts 86°
2026-04-25 11:08 53.75783 13.10625 28935 ft 494 kts 86°
2026-04-25 11:08 53.75851 13.16428 29208 ft 494 kts 86°
2026-04-25 11:09 53.75918 13.22215 29471 ft 493 kts 86°
2026-04-25 11:09 53.75985 13.28006 29711 ft 493 kts 86°
2026-04-25 11:09 53.76053 13.33802 29924 ft 493 kts 86°
2026-04-25 11:09 53.76116 13.39590 30181 ft 492 kts 86°
2026-04-25 11:10 53.76175 13.45376 30413 ft 492 kts 86°
2026-04-25 11:10 53.76211 13.49202 30558 ft 492 kts 86°
2026-04-25 11:10 53.76241 13.56938 30867 ft 492 kts 87°
2026-04-25 11:10 53.76217 13.62722 31057 ft 493 kts 88°
2026-04-25 11:11 53.76180 13.68516 31270 ft 492 kts 88°
2026-04-25 11:11 53.76152 13.74307 31491 ft 492 kts 88°
2026-04-25 11:11 53.76142 13.80082 31697 ft 492 kts 87°
2026-04-25 11:11 53.76138 13.85871 31910 ft 491 kts 87°
2026-04-25 11:12 53.76129 13.91648 32112 ft 491 kts 88°
2026-04-25 11:12 53.76110 13.97423 32317 ft 491 kts 88°
2026-04-25 11:12 53.76083 14.03108 32544 ft 490 kts 88°
2026-04-25 11:12 53.76052 14.08687 32766 ft 488 kts 88°
2026-04-25 11:13 53.76020 14.14427 32948 ft 489 kts 88°
2026-04-25 11:13 53.75966 14.25900 32937 ft 488 kts 86°
2026-04-25 11:14 53.76677 14.37234 32944 ft 484 kts 78°
2026-04-25 11:14 53.77796 14.48440 32941 ft 483 kts 77°
2026-04-25 11:15 53.78949 14.59649 32938 ft 483 kts 77°
2026-04-25 11:15 53.80033 14.70875 32938 ft 484 kts 77°
2026-04-25 11:16 53.81651 14.87730 32918 ft 484 kts 77°
2026-04-25 11:16 53.82726 14.98906 32906 ft 484 kts 77°
2026-04-25 11:17 53.83789 15.10176 32903 ft 485 kts 78°
2026-04-25 11:17 53.84839 15.21448 32900 ft 485 kts 78°
2026-04-25 11:18 53.85884 15.32738 32877 ft 485 kts 78°
2026-04-25 11:18 53.86919 15.44049 32873 ft 486 kts 78°
2026-04-25 11:19 53.87942 15.55375 32899 ft 486 kts 78°
2026-04-25 11:19 53.88960 15.66727 32867 ft 487 kts 78°
2026-04-25 11:20 53.89966 15.78099 32867 ft 488 kts 78°
2026-04-25 11:20 53.90963 15.89492 32842 ft 489 kts 78°
2026-04-25 11:21 53.91946 16.00819 32857 ft 488 kts 78°
2026-04-25 11:21 53.92921 16.12219 32862 ft 489 kts 78°
2026-04-25 11:22 53.93728 16.21788 32872 ft 489 kts 79°
2026-04-25 11:22 53.94836 16.35028 32669 ft 484 kts 79°
2026-04-25 11:23 53.95304 16.40675 32077 ft 482 kts 79°
2026-04-25 11:23 53.95772 16.46341 31139 ft 489 kts 79°
2026-04-25 11:23 53.96245 16.52095 30226 ft 494 kts 79°
2026-04-25 11:23 53.96713 16.57860 29622 ft 491 kts 79°
2026-04-25 11:24 53.97175 16.63599 28947 ft 489 kts 79°
2026-04-25 11:24 53.97637 16.69345 28016 ft 493 kts 79°
2026-04-25 11:24 53.98102 16.75146 27122 ft 497 kts 79°
2026-04-25 11:24 53.98564 16.80956 26318 ft 497 kts 79°
2026-04-25 11:25 53.99025 16.86792 25471 ft 498 kts 79°
2026-04-25 11:25 53.99480 16.92602 24864 ft 494 kts 79°
2026-04-25 11:25 53.99928 16.98361 24250 ft 489 kts 79°
2026-04-25 11:25 54.00370 17.04078 23596 ft 486 kts 79°
2026-04-25 11:26 54.00808 17.09770 22850 ft 486 kts 79°
2026-04-25 11:26 54.01243 17.15452 22197 ft 482 kts 79°
2026-04-25 11:26 54.01672 17.21095 21553 ft 479 kts 79°
2026-04-25 11:26 54.02093 17.26692 20925 ft 475 kts 79°
2026-04-25 11:27 54.02510 17.32250 20289 ft 471 kts 79°
2026-04-25 11:27 54.02920 17.37759 19657 ft 468 kts 79°
2026-04-25 11:27 54.03325 17.43220 19037 ft 463 kts 79°
2026-04-25 11:27 54.03589 17.46811 18611 ft 461 kts 79°
2026-04-25 11:28 54.04110 17.53955 17772 ft 457 kts 79°
2026-04-25 11:28 54.04497 17.59291 17149 ft 453 kts 79°
2026-04-25 11:28 54.04879 17.64581 16554 ft 448 kts 79°
2026-04-25 11:28 54.05257 17.69819 15950 ft 444 kts 79°
2026-04-25 11:29 54.05914 17.74890 15340 ft 434 kts 66°
2026-04-25 11:29 54.07035 17.79603 14768 ft 426 kts 61°
2026-04-25 11:29 54.08259 17.84136 14372 ft 415 kts 60°
2026-04-25 11:29 54.09476 17.88544 13902 ft 408 kts 60°
2026-04-25 11:30 54.10656 17.92938 13121 ft 410 kts 61°
2026-04-25 11:30 54.11799 17.97392 12392 ft 410 kts 62°
2026-04-25 11:30 54.12907 18.01854 11783 ft 406 kts 62°
2026-04-25 11:30 54.14000 18.06271 11149 ft 403 kts 62°
2026-04-25 11:31 54.15099 18.10643 10517 ft 399 kts 62°
2026-04-25 11:31 54.16206 18.14980 9892 ft 397 kts 62°
2026-04-25 11:31 54.17307 18.19290 9297 ft 395 kts 62°
2026-04-25 11:31 54.18389 18.23573 8716 ft 392 kts 62°
2026-04-25 11:32 54.19459 18.27838 8138 ft 389 kts 62°
2026-04-25 11:32 54.20520 18.32078 7568 ft 386 kts 62°
2026-04-25 11:32 54.21571 18.36277 7009 ft 383 kts 62°
2026-04-25 11:32 54.22615 18.40439 6454 ft 379 kts 62°
2026-04-25 11:33 54.23649 18.44566 5940 ft 375 kts 62°
2026-04-25 11:33 54.24638 18.48538 5624 ft 358 kts 63°
2026-04-25 11:33 54.25586 18.52362 5177 ft 342 kts 63°
2026-04-25 11:33 54.26499 18.56040 4686 ft 330 kts 63°
2026-04-25 11:34 54.27364 18.59605 4217 ft 319 kts 68°
2026-04-25 11:34 54.27962 18.63208 3780 ft 310 kts 74°
2026-04-25 11:34 54.28212 18.66807 3326 ft 302 kts 90°
2026-04-25 11:34 54.28085 18.70342 3061 ft 292 kts 101°
2026-04-25 11:35 54.27558 18.73602 2990 ft 277 kts 110°
2026-04-25 11:35 54.26929 18.76631 2988 ft 264 kts 112°
2026-04-25 11:35 54.26485 18.79603 2968 ft 253 kts 92°
2026-04-25 11:35 54.26772 18.82444 2964 ft 236 kts 62°
2026-04-25 11:36 54.27722 18.84536 3015 ft 213 kts 32°
2026-04-25 11:36 54.29004 18.85419 2986 ft 190 kts 357°
2026-04-25 11:36 54.30214 18.84976 2993 ft 173 kts 323°
2026-04-25 11:36 54.30960 18.83502 2997 ft 162 kts 288°
2026-04-25 11:37 54.31085 18.81614 3013 ft 160 kts 269°
2026-04-25 11:37 54.31037 18.79715 3010 ft 159 kts 267°
2026-04-25 11:37 54.30965 18.77828 3006 ft 159 kts 266°
2026-04-25 11:37 54.30889 18.75939 3004 ft 159 kts 266°
2026-04-25 11:38 54.31007 18.74066 3000 ft 160 kts 284°
2026-04-25 11:38 54.31404 18.72281 3005 ft 160 kts 289°
2026-04-25 11:38 54.31824 18.70594 2975 ft 147 kts 290°
2026-04-25 11:38 54.32088 18.69556 2938 ft 141 kts 289°
2026-04-25 11:39 54.32466 18.68026 2765 ft 139 kts 289°
2026-04-25 11:39 54.32838 18.66505 2588 ft 138 kts 289°
2026-04-25 11:39 54.33214 18.64992 2411 ft 138 kts 289°
2026-04-25 11:39 54.33589 18.63483 2234 ft 137 kts 289°
2026-04-25 11:40 54.33961 18.61977 2058 ft 137 kts 289°
2026-04-25 11:40 54.34332 18.60479 1882 ft 137 kts 289°
2026-04-25 11:40 54.34702 18.58983 1707 ft 136 kts 289°
2026-04-25 11:40 54.35071 18.57492 1532 ft 136 kts 290°
2026-04-25 11:41 54.35440 18.56003 1361 ft 135 kts 290°
2026-04-25 11:41 54.35806 18.54519 1184 ft 135 kts 289°
2026-04-25 11:41 54.36165 18.53037 1002 ft 135 kts 289°
2026-04-25 11:41 54.36536 18.51574 822 ft 134 kts 289°
2026-04-25 11:42 54.36894 18.50103 670 ft 134 kts 289°
2026-04-25 11:42 54.37258 18.48642 521 ft 132 kts 290°
2026-04-25 11:42 54.37589 18.47293 503 ft 104 kts 292°
2026-04-25 11:42 54.37759 18.46618 503 ft 33 kts 291°
2026-04-25 11:43 54.37839 18.46298 503 ft 28 kts 294°
2026-04-25 11:43 54.37916 18.46007 503 ft 25 kts 300°
2026-04-25 11:43 54.38032 18.45789 503 ft 25 kts 324°
2026-04-25 11:43 54.38125 18.45691 503 ft 12 kts
2026-04-25 11:44 54.38142 18.45811 503 ft 14 kts 113°
2026-04-25 11:44 54.38100 18.45976 503 ft 15 kts 101°
2026-04-25 11:44 54.38150 18.46072 503 ft 6 kts 20°
2026-04-25 11:44 54.38190 18.46126 503 ft 8 kts 84°
2026-04-25 11:45 54.38167 18.46226 503 ft 11 kts 112°
2026-04-25 11:45 54.38134 18.46360 503 ft 14 kts 114°
2026-04-25 11:45 54.38115 18.46452 503 ft 3 kts 64°
2026-04-25 11:45 54.38139 18.46476 503 ft 3 kts 22°
2026-04-25 11:46 54.38151 18.46484 503 ft 0 kts 22°